Location: Unspecified
(0.0000°N, 0.0000°E)
Time: 03:29:42
(UTC+00:00)

OTV 5 (USA 277) - Pass Details

Date: 16 January 2018
Orbit: 404 x 417 km, 43.0° (Epoch: 07 September)

Event Time Altitude Azimuth Distance (km) Brightness Sun altitude
Rises 19:10:39 0° 248° (WSW) 2,347 ? -14.2°
Reaches altitude 10° 19:13:09 10° 266° (W) 1,482 ? -14.8°
Maximum altitude 19:15:39 19° 315° (NW) 1,039 ? -15.3°
Enters shadow 19:17:57 11° 1° (N) 1,420 ? -15.9°
